Time,TemperatureF,DewpointF,PressureIn,WindDirection,WindDirectionDegrees,WindSpeedMPH,WindSpeedGustMPH,Humidity,HourlyPrecipIn,Conditions,Clouds,dailyrainin,SoftwareType,DateUTC
2013-01-07 00:00:00,41.0,30.1,0.00,North,0,0.0,0.0,65,0.00,,,0.00,WUHU21623XXSP,2013-01-07 05:00:00,
2013-01-07 00:01:00,41.0,30.1,0.00,North,0,0.0,0.0,65,0.00,,,0.00,WUHU21623XXSP,2013-01-07 05:01:00,
2013-01-07 00:06:00,40.8,29.9,0.00,North,0,0.0,0.0,65,0.00,,,0.00,WUHU21623XXSP,2013-01-07 05:06:00,
2013-01-07 00:11:00,40.8,29.9,0.00,North,0,0.0,0.0,65,0.00,,,0.00,WUHU21623XXSP,2013-01-07 05:11:00,
2013-01-07 00:16:00,40.8,29.9,0.00,North,0,0.0,0.0,65,0.00,,,0.00,WUHU21623XXSP,2013-01-07 05:16:00,
2013-01-07 00:21:00,40.8,30.3,0.00,North,0,0.0,0.0,66,0.00,,,0.00,WUHU21623XXSP,2013-01-07 05:21:00,
2013-01-07 00:26:00,40.8,30.3,0.00,North,0,0.0,0.0,66,0.00,,,0.00,WUHU21623XXSP,2013-01-07 05:26:00,
2013-01-07 00:31:00,40.8,30.3,0.00,North,0,0.0,0.0,66,0.00,,,0.00,WUHU21623XXSP,2013-01-07 05:31:00,
2013-01-07 00:36:00,40.8,29.9,0.00,North,0,0.0,0.0,65,0.00,,,0.00,WUHU21623XXSP,2013-01-07 05:36:00,
2013-01-07 00:41:00,40.8,29.9,0.00,North,0,0.0,0.0,65,0.00,,,0.00,WUHU21623XXSP,2013-01-07 05:41:00,
2013-01-07 00:46:00,40.8,30.3,0.00,North,0,0.0,0.0,66,0.00,,,0.00,WUHU21623XXSP,2013-01-07 05:46:00,
2013-01-07 00:51:00,40.8,30.3,0.00,North,0,0.0,0.0,66,0.00,,,0.00,WUHU21623XXSP,2013-01-07 05:51:00,
2013-01-07 00:56:00,40.8,30.3,0.00,North,0,0.0,0.0,66,0.00,,,0.00,WUHU21623XXSP,2013-01-07 05:56:00,
2013-01-07 01:01:00,40.8,30.3,0.00,North,0,0.0,0.0,66,0.00,,,0.00,WUHU21623XXSP,2013-01-07 06:01:00,
2013-01-07 01:06:00,40.8,30.3,0.00,North,0,0.0,0.0,66,0.00,,,0.00,WUHU21623XXSP,2013-01-07 06:06:00,
2013-01-07 01:11:00,40.8,30.3,0.00,North,0,0.0,0.0,66,0.00,,,0.00,WUHU21623XXSP,2013-01-07 06:11:00,
2013-01-07 01:16:00,40.8,30.3,0.00,North,0,0.0,0.0,66,0.00,,,0.00,WUHU21623XXSP,2013-01-07 06:16:00,
2013-01-07 01:21:00,40.8,30.3,0.00,North,0,0.0,0.0,66,0.00,,,0.00,WUHU21623XXSP,2013-01-07 06:21:00,
2013-01-07 01:26:00,40.8,30.3,0.00,North,0,0.0,0.0,66,0.00,,,0.00,WUHU21623XXSP,2013-01-07 06:26:00,
2013-01-07 01:31:00,40.8,30.3,0.00,North,0,0.0,0.0,66,0.00,,,0.00,WUHU21623XXSP,2013-01-07 06:31:00,
2013-01-07 01:36:00,40.8,30.3,0.00,North,0,0.0,0.0,66,0.00,,,0.00,WUHU21623XXSP,2013-01-07 06:36:00,
2013-01-07 01:41:00,40.8,30.3,0.00,North,0,0.0,0.0,66,0.00,,,0.00,WUHU21623XXSP,2013-01-07 06:41:00,
2013-01-07 01:46:00,40.8,30.3,0.00,North,0,0.0,0.0,66,0.00,,,0.00,WUHU21623XXSP,2013-01-07 06:46:00,
2013-01-07 01:51:00,40.8,30.3,0.00,North,0,0.0,0.0,66,0.00,,,0.00,WUHU21623XXSP,2013-01-07 06:51:00,
2013-01-07 01:56:00,40.8,30.3,0.00,North,0,0.0,0.0,66,0.00,,,0.00,WUHU21623XXSP,2013-01-07 06:56:00,
2013-01-07 02:01:00,40.8,30.7,0.00,North,0,0.0,0.0,67,0.00,,,0.00,WUHU21623XXSP,2013-01-07 07:01:00,
2013-01-07 02:06:00,40.6,30.5,0.00,North,0,0.0,0.0,67,0.00,,,0.00,WUHU21623XXSP,2013-01-07 07:06:00,
2013-01-07 02:11:00,40.6,30.5,0.00,North,0,0.0,0.0,67,0.00,,,0.00,WUHU21623XXSP,2013-01-07 07:11:00,
2013-01-07 02:16:00,40.5,30.3,0.00,North,0,0.0,0.0,67,0.00,,,0.00,WUHU21623XXSP,2013-01-07 07:16:00,
2013-01-07 02:21:00,40.3,30.1,0.00,North,0,0.0,0.0,67,0.00,,,0.00,WUHU21623XXSP,2013-01-07 07:21:00,
2013-01-07 02:26:00,40.1,30.0,0.00,North,0,0.0,0.0,67,0.00,,,0.00,WUHU21623XXSP,2013-01-07 07:26:00,
2013-01-07 02:31:00,39.9,29.8,0.00,North,0,0.0,0.0,67,0.00,,,0.00,WUHU21623XXSP,2013-01-07 07:31:00,
2013-01-07 02:36:00,39.9,29.8,0.00,North,0,0.0,0.0,67,0.00,,,0.00,WUHU21623XXSP,2013-01-07 07:36:00,
2013-01-07 02:41:00,39.9,29.8,0.00,North,0,0.0,0.0,67,0.00,,,0.00,WUHU21623XXSP,2013-01-07 07:41:00,
2013-01-07 02:46:00,39.9,29.8,0.00,North,0,0.0,0.0,67,0.00,,,0.00,WUHU21623XXSP,2013-01-07 07:46:00,
2013-01-07 02:51:00,39.9,29.8,0.00,North,0,0.0,0.0,67,0.00,,,0.00,WUHU21623XXSP,2013-01-07 07:51:00,
2013-01-07 02:56:00,39.9,29.8,0.00,North,0,0.0,0.0,67,0.00,,,0.00,WUHU21623XXSP,2013-01-07 07:56:00,
2013-01-07 03:01:00,39.7,29.6,0.00,North,0,0.0,0.0,67,0.00,,,0.00,WUHU21623XXSP,2013-01-07 08:01:00,
2013-01-07 03:06:00,39.7,29.6,0.00,North,0,0.0,0.0,67,0.00,,,0.00,WUHU21623XXSP,2013-01-07 08:06:00,
2013-01-07 03:11:00,39.7,29.6,0.00,North,0,0.0,0.0,67,0.00,,,0.00,WUHU21623XXSP,2013-01-07 08:11:00,
2013-01-07 03:16:00,39.7,29.6,0.00,North,0,0.0,0.0,67,0.00,,,0.00,WUHU21623XXSP,2013-01-07 08:16:00,
2013-01-07 03:21:00,39.9,29.8,0.00,North,0,0.0,0.0,67,0.00,,,0.00,WUHU21623XXSP,2013-01-07 08:21:00,
2013-01-07 03:26:00,39.9,29.8,0.00,North,0,0.0,0.0,67,0.00,,,0.00,WUHU21623XXSP,2013-01-07 08:26:00,
2013-01-07 03:31:00,40.1,30.0,0.00,North,0,0.0,0.0,67,0.00,,,0.00,WUHU21623XXSP,2013-01-07 08:31:00,
2013-01-07 03:36:00,40.1,30.0,0.00,North,0,0.0,0.0,67,0.00,,,0.00,WUHU21623XXSP,2013-01-07 08:36:00,
2013-01-07 03:41:00,40.1,30.0,0.00,North,0,0.0,0.0,67,0.00,,,0.00,WUHU21623XXSP,2013-01-07 08:41:00,
2013-01-07 03:46:00,40.1,29.6,0.00,North,0,0.0,0.0,66,0.00,,,0.00,WUHU21623XXSP,2013-01-07 08:46:00,
2013-01-07 03:51:00,39.9,29.4,0.00,North,0,0.0,0.0,66,0.00,,,0.00,WUHU21623XXSP,2013-01-07 08:51:00,
2013-01-07 03:56:00,39.9,29.4,0.00,North,0,0.0,0.0,66,0.00,,,0.00,WUHU21623XXSP,2013-01-07 08:56:00,
2013-01-07 04:01:00,39.9,29.4,0.00,North,0,0.0,0.0,66,0.00,,,0.00,WUHU21623XXSP,2013-01-07 09:01:00,
2013-01-07 04:06:00,39.9,29.4,0.00,North,0,0.0,0.0,66,0.00,,,0.00,WUHU21623XXSP,2013-01-07 09:06:00,
2013-01-07 04:11:00,39.9,29.4,0.00,North,0,0.0,0.0,66,0.00,,,0.00,WUHU21623XXSP,2013-01-07 09:11:00,
2013-01-07 04:16:00,39.7,29.2,0.00,North,0,0.0,0.0,66,0.00,,,0.00,WUHU21623XXSP,2013-01-07 09:16:00,
2013-01-07 04:21:00,39.6,29.2,0.00,North,0,0.0,0.0,66,0.00,,,0.00,WUHU21623XXSP,2013-01-07 09:21:00,
2013-01-07 04:26:00,39.4,28.9,0.00,North,0,0.0,0.0,66,0.00,,,0.00,WUHU21623XXSP,2013-01-07 09:26:00,
2013-01-07 04:31:00,39.0,28.5,0.00,North,0,0.0,0.0,66,0.00,,,0.00,WUHU21623XXSP,2013-01-07 09:31:00,
2013-01-07 04:36:00,38.8,28.4,0.00,North,0,0.0,0.0,66,0.00,,,0.00,WUHU21623XXSP,2013-01-07 09:36:00,
2013-01-07 04:41:00,38.7,28.2,0.00,North,0,0.0,0.0,66,0.00,,,0.00,WUHU21623XXSP,2013-01-07 09:41:00,
2013-01-07 04:46:00,38.3,27.9,0.00,North,0,0.0,0.0,66,0.00,,,0.00,WUHU21623XXSP,2013-01-07 09:46:00,
2013-01-07 04:51:00,38.3,27.9,0.00,North,0,0.0,0.0,66,0.00,,,0.00,WUHU21623XXSP,2013-01-07 09:51:00,
2013-01-07 04:56:00,37.9,27.6,0.00,North,0,0.0,0.0,66,0.00,,,0.00,WUHU21623XXSP,2013-01-07 09:56:00,
2013-01-07 05:01:00,37.9,27.6,0.00,North,0,0.0,0.0,66,0.00,,,0.00,WUHU21623XXSP,2013-01-07 10:01:00,
2013-01-07 05:06:00,37.8,27.4,0.00,North,0,0.0,0.0,66,0.00,,,0.00,WUHU21623XXSP,2013-01-07 10:06:00,
2013-01-07 05:11:00,37.8,27.4,0.00,North,0,0.0,0.0,66,0.00,,,0.00,WUHU21623XXSP,2013-01-07 10:11:00,
2013-01-07 05:16:00,37.6,27.6,0.00,North,0,0.0,0.0,67,0.00,,,0.00,WUHU21623XXSP,2013-01-07 10:16:00,
2013-01-07 05:21:00,37.4,27.4,0.00,North,0,0.0,0.0,67,0.00,,,0.00,WUHU21623XXSP,2013-01-07 10:21:00,
2013-01-07 05:26:00,37.2,27.3,0.00,North,0,0.0,0.0,67,0.00,,,0.00,WUHU21623XXSP,2013-01-07 10:26:00,
2013-01-07 05:31:00,37.2,27.3,0.00,North,0,0.0,0.0,67,0.00,,,0.00,WUHU21623XXSP,2013-01-07 10:31:00,
2013-01-07 05:36:00,37.2,27.3,0.00,North,0,0.0,0.0,67,0.00,,,0.00,WUHU21623XXSP,2013-01-07 10:36:00,
2013-01-07 05:41:00,37.0,27.1,0.00,North,0,0.0,0.0,67,0.00,,,0.00,WUHU21623XXSP,2013-01-07 10:41:00,
2013-01-07 05:46:00,37.0,27.1,0.00,North,0,0.0,0.0,67,0.00,,,0.00,WUHU21623XXSP,2013-01-07 10:46:00,
2013-01-07 05:51:00,37.2,27.3,0.00,North,0,0.0,0.0,67,0.00,,,0.00,WUHU21623XXSP,2013-01-07 10:51:00,
2013-01-07 05:56:00,37.4,27.3,0.00,North,0,0.0,0.0,67,0.00,,,0.00,WUHU21623XXSP,2013-01-07 10:56:00,
2013-01-07 06:01:00,37.4,27.4,0.00,North,0,0.0,0.0,67,0.00,,,0.00,WUHU21623XXSP,2013-01-07 11:01:00,
2013-01-07 06:06:00,37.2,27.3,0.00,North,0,0.0,0.0,67,0.00,,,0.00,WUHU21623XXSP,2013-01-07 11:06:00,
2013-01-07 06:11:00,37.2,27.3,0.00,North,0,0.0,0.0,67,0.00,,,0.00,WUHU21623XXSP,2013-01-07 11:11:00,
2013-01-07 06:16:00,37.2,27.6,0.00,North,0,0.0,0.0,68,0.00,,,0.00,WUHU21623XXSP,2013-01-07 11:16:00,
2013-01-07 06:21:00,37.2,27.6,0.00,North,0,0.0,0.0,68,0.00,,,0.00,WUHU21623XXSP,2013-01-07 11:21:00,
2013-01-07 06:26:00,37.0,27.5,0.00,North,0,0.0,0.0,68,0.00,,,0.00,WUHU21623XXSP,2013-01-07 11:26:00,
2013-01-07 06:31:00,36.9,27.3,0.00,North,0,0.0,0.0,68,0.00,,,0.00,WUHU21623XXSP,2013-01-07 11:31:00,
2013-01-07 06:36:00,36.7,27.1,0.00,North,0,0.0,0.0,68,0.00,,,0.00,WUHU21623XXSP,2013-01-07 11:36:00,
2013-01-07 06:41:00,36.5,26.9,0.00,North,0,0.0,0.0,68,0.00,,,0.00,WUHU21623XXSP,2013-01-07 11:41:00,
2013-01-07 06:46:00,36.3,26.8,0.00,North,0,0.0,0.0,68,0.00,,,0.00,WUHU21623XXSP,2013-01-07 11:46:00,
2013-01-07 06:51:00,36.1,26.6,0.00,North,0,0.0,0.0,68,0.00,,,0.00,WUHU21623XXSP,2013-01-07 11:51:00,
2013-01-07 06:56:00,36.1,26.6,0.00,North,0,0.0,0.0,68,0.00,,,0.00,WUHU21623XXSP,2013-01-07 11:56:00,
2013-01-07 07:01:00,36.0,26.4,0.00,North,0,0.0,0.0,68,0.00,,,0.00,WUHU21623XXSP,2013-01-07 12:01:00,
2013-01-07 07:06:00,35.8,26.2,0.00,North,0,0.0,0.0,68,0.00,,,0.00,WUHU21623XXSP,2013-01-07 12:06:00,
2013-01-07 07:11:00,35.6,26.2,0.00,North,0,0.0,0.0,68,0.00,,,0.00,WUHU21623XXSP,2013-01-07 12:11:00,
2013-01-07 07:16:00,35.4,25.9,0.00,North,0,0.0,0.0,68,0.00,,,0.00,WUHU21623XXSP,2013-01-07 12:16:00,
2013-01-07 07:21:00,35.2,25.9,0.00,North,0,0.0,0.0,68,0.00,,,0.00,WUHU21623XXSP,2013-01-07 12:21:00,
2013-01-07 07:26:00,35.2,25.7,0.00,North,0,0.0,0.0,68,0.00,,,0.00,WUHU21623XXSP,2013-01-07 12:26:00,
2013-01-07 07:31:00,34.9,25.7,0.00,North,0,0.0,0.0,69,0.00,,,0.00,WUHU21623XXSP,2013-01-07 12:31:00,
2013-01-07 07:36:00,34.9,25.7,0.00,North,0,0.0,0.0,69,0.00,,,0.00,WUHU21623XXSP,2013-01-07 12:36:00,
2013-01-07 07:41:00,34.5,25.3,0.00,North,0,0.0,0.0,69,0.00,,,0.00,WUHU21623XXSP,2013-01-07 12:41:00,
2013-01-07 07:46:00,34.3,25.3,0.00,North,0,0.0,0.0,69,0.00,,,0.00,WUHU21623XXSP,2013-01-07 12:46:00,
2013-01-07 07:51:00,34.3,25.2,0.00,North,0,0.0,0.0,69,0.00,,,0.00,WUHU21623XXSP,2013-01-07 12:51:00,
2013-01-07 07:56:00,34.3,25.2,0.00,North,0,0.0,0.0,69,0.00,,,0.00,WUHU21623XXSP,2013-01-07 12:56:00,
2013-01-07 08:01:00,34.2,25.2,0.00,North,0,0.0,0.0,69,0.00,,,0.00,WUHU21623XXSP,2013-01-07 13:01:00,
2013-01-07 08:06:00,34.0,24.8,0.00,North,0,0.0,0.0,69,0.00,,,0.00,WUHU21623XXSP,2013-01-07 13:06:00,
2013-01-07 08:11:00,33.8,25.0,0.00,North,0,0.0,0.0,70,0.00,,,0.00,WUHU21623XXSP,2013-01-07 13:11:00,
2013-01-07 08:16:00,33.6,24.8,0.00,North,0,0.0,0.0,70,0.00,,,0.00,WUHU21623XXSP,2013-01-07 13:16:00,
2013-01-07 08:21:00,33.8,25.0,0.00,North,0,0.0,0.0,70,0.00,,,0.00,WUHU21623XXSP,2013-01-07 13:21:00,
2013-01-07 08:26:00,33.8,25.3,0.00,North,0,0.0,0.0,71,0.00,,,0.00,WUHU21623XXSP,2013-01-07 13:26:00,
2013-01-07 08:31:00,34.0,25.5,0.00,North,0,0.0,0.0,71,0.00,,,0.00,WUHU21623XXSP,2013-01-07 13:31:00,
2013-01-07 08:36:00,34.0,25.5,0.00,North,0,0.0,0.0,71,0.00,,,0.00,WUHU21623XXSP,2013-01-07 13:36:00,
2013-01-07 08:41:00,34.3,26.2,0.00,North,0,0.0,0.0,72,0.00,,,0.00,WUHU21623XXSP,2013-01-07 13:41:00,
2013-01-07 08:46:00,34.7,26.5,0.00,North,0,0.0,0.0,72,0.00,,,0.00,WUHU21623XXSP,2013-01-07 13:46:00,
2013-01-07 08:51:00,34.9,26.7,0.00,North,0,0.0,0.0,72,0.00,,,0.00,WUHU21623XXSP,2013-01-07 13:51:00,
2013-01-07 08:56:00,35.2,27.1,0.00,North,0,0.0,0.0,72,0.00,,,0.00,WUHU21623XXSP,2013-01-07 13:56:00,
2013-01-07 09:01:00,35.4,27.2,0.00,North,0,0.0,0.0,72,0.00,,,0.00,WUHU21623XXSP,2013-01-07 14:01:00,
2013-01-07 09:06:00,35.8,27.9,0.00,North,0,0.0,0.0,73,0.00,,,0.00,WUHU21623XXSP,2013-01-07 14:06:00,
2013-01-07 09:11:00,36.5,28.5,0.00,North,0,0.0,0.0,72,0.00,,,0.00,WUHU21623XXSP,2013-01-07 14:11:00,
2013-01-07 09:16:00,37.2,29.0,0.00,North,0,0.0,0.0,72,0.00,,,0.00,WUHU21623XXSP,2013-01-07 14:16:00,
2013-01-07 09:21:00,37.9,29.4,0.00,North,0,0.0,0.0,71,0.00,,,0.00,WUHU21623XXSP,2013-01-07 14:21:00,
2013-01-07 09:26:00,38.8,29.9,0.00,North,0,0.0,0.0,70,0.00,,,0.00,WUHU21623XXSP,2013-01-07 14:26:00,
2013-01-07 09:31:00,39.4,30.0,0.00,North,0,0.0,0.0,69,0.00,,,0.00,WUHU21623XXSP,2013-01-07 14:31:00,
2013-01-07 09:36:00,39.9,30.5,0.00,North,0,0.0,0.0,69,0.00,,,0.00,WUHU21623XXSP,2013-01-07 14:36:00,
2013-01-07 09:41:00,40.6,30.5,0.00,North,0,0.0,0.0,67,0.00,,,0.00,WUHU21623XXSP,2013-01-07 14:41:00,
2013-01-07 09:46:00,40.8,30.3,0.00,North,0,0.0,0.0,66,0.00,,,0.00,WUHU21623XXSP,2013-01-07 14:46:00,
2013-01-07 09:51:00,41.2,30.3,0.00,North,0,0.0,0.0,65,0.00,,,0.00,WUHU21623XXSP,2013-01-07 14:51:00,
2013-01-07 09:56:00,41.7,30.8,0.00,North,0,0.0,0.0,65,0.00,,,0.00,WUHU21623XXSP,2013-01-07 14:56:00,
2013-01-07 10:01:00,42.1,30.7,0.00,North,0,0.0,0.0,64,0.00,,,0.00,WUHU21623XXSP,2013-01-07 15:01:00,
2013-01-07 10:06:00,42.4,31.1,0.00,North,0,0.0,0.0,64,0.00,,,0.00,WUHU21623XXSP,2013-01-07 15:06:00,
2013-01-07 10:11:00,42.6,30.8,0.00,North,0,0.0,0.0,63,0.00,,,0.00,WUHU21623XXSP,2013-01-07 15:11:00,
2013-01-07 10:16:00,43.0,30.8,0.00,North,0,0.0,0.0,62,0.00,,,0.00,WUHU21623XXSP,2013-01-07 15:16:00,
2013-01-07 10:21:00,43.3,31.2,0.00,North,0,0.0,0.0,62,0.00,,,0.00,WUHU21623XXSP,2013-01-07 15:21:00,
2013-01-07 10:26:00,44.1,31.5,0.00,North,0,0.0,0.0,61,0.00,,,0.00,WUHU21623XXSP,2013-01-07 15:26:00,
2013-01-07 10:31:00,44.4,31.8,0.00,North,0,0.0,0.0,61,0.00,,,0.00,WUHU21623XXSP,2013-01-07 15:31:00,
2013-01-07 10:36:00,44.8,31.8,0.00,North,0,0.0,0.0,60,0.00,,,0.00,WUHU21623XXSP,2013-01-07 15:36:00,
2013-01-07 10:41:00,45.0,32.0,0.00,North,0,0.0,0.0,60,0.00,,,0.00,WUHU21623XXSP,2013-01-07 15:41:00,
2013-01-07 10:46:00,45.1,31.7,0.00,North,0,0.0,0.0,59,0.00,,,0.00,WUHU21623XXSP,2013-01-07 15:46:00,
2013-01-07 10:51:00,45.1,31.7,0.00,North,0,0.0,0.0,59,0.00,,,0.00,WUHU21623XXSP,2013-01-07 15:51:00,
2013-01-07 10:56:00,45.5,31.6,0.00,North,0,0.0,0.0,58,0.00,,,0.00,WUHU21623XXSP,2013-01-07 15:56:00,
2013-01-07 11:01:00,45.9,31.9,0.00,North,0,0.0,0.0,58,0.00,,,0.00,WUHU21623XXSP,2013-01-07 16:01:00,
2013-01-07 11:06:00,46.0,31.6,0.00,North,0,0.0,0.0,57,0.00,,,0.00,WUHU21623XXSP,2013-01-07 16:06:00,
2013-01-07 11:11:00,46.2,31.7,0.00,North,0,0.0,0.0,57,0.00,,,0.00,WUHU21623XXSP,2013-01-07 16:11:00,
2013-01-07 11:16:00,46.6,32.1,0.00,North,0,0.0,0.0,57,0.00,,,0.00,WUHU21623XXSP,2013-01-07 16:16:00,
2013-01-07 11:21:00,46.6,31.6,0.00,North,0,0.0,0.0,56,0.00,,,0.00,WUHU21623XXSP,2013-01-07 16:21:00,
2013-01-07 11:26:00,46.6,31.6,0.00,North,0,0.0,0.0,56,0.00,,,0.00,WUHU21623XXSP,2013-01-07 16:26:00,
2013-01-07 11:31:00,46.8,31.8,0.00,North,0,0.0,0.0,56,0.00,,,0.00,WUHU21623XXSP,2013-01-07 16:31:00,
2013-01-07 11:36:00,46.8,31.8,0.00,North,0,0.0,0.0,56,0.00,,,0.00,WUHU21623XXSP,2013-01-07 16:36:00,
2013-01-07 11:41:00,47.1,32.1,0.00,North,0,0.0,0.0,56,0.00,,,0.00,WUHU21623XXSP,2013-01-07 16:41:00,
2013-01-07 11:46:00,47.3,32.3,0.00,North,0,0.0,0.0,56,0.00,,,0.00,WUHU21623XXSP,2013-01-07 16:46:00,
2013-01-07 11:52:00,47.5,32.0,0.00,North,0,0.0,0.0,55,0.00,,,0.00,WUHU21623XXSP,2013-01-07 16:52:00,
2013-01-07 11:57:00,47.8,31.9,0.00,North,0,0.0,0.0,54,0.00,,,0.00,WUHU21623XXSP,2013-01-07 16:57:00,
2013-01-07 12:02:00,48.0,31.6,0.00,North,0,0.0,0.0,53,0.00,,,0.00,WUHU21623XXSP,2013-01-07 17:02:00,
2013-01-07 12:07:00,48.0,32.1,0.00,North,0,0.0,0.0,54,0.00,,,0.00,WUHU21623XXSP,2013-01-07 17:07:00,
2013-01-07 12:12:00,48.0,32.1,0.00,North,0,0.0,0.0,54,0.00,,,0.00,WUHU21623XXSP,2013-01-07 17:12:00,
2013-01-07 12:17:00,48.0,32.1,0.00,North,0,0.0,0.0,54,0.00,,,0.00,WUHU21623XXSP,2013-01-07 17:17:00,
2013-01-07 12:22:00,48.2,32.3,0.00,North,0,0.0,0.0,54,0.00,,,0.00,WUHU21623XXSP,2013-01-07 17:22:00,
2013-01-07 12:27:00,48.2,32.3,0.00,North,0,0.0,0.0,54,0.00,,,0.00,WUHU21623XXSP,2013-01-07 17:27:00,
2013-01-07 12:32:00,48.4,31.9,0.00,North,0,0.0,0.0,53,0.00,,,0.00,WUHU21623XXSP,2013-01-07 17:32:00,
2013-01-07 12:37:00,48.6,32.1,0.00,North,0,0.0,0.0,53,0.00,,,0.00,WUHU21623XXSP,2013-01-07 17:37:00,
2013-01-07 12:42:00,48.4,31.0,0.00,North,0,0.0,0.0,51,0.00,,,0.00,WUHU21623XXSP,2013-01-07 17:42:00,
2013-01-07 12:47:00,48.6,31.7,0.00,North,0,0.0,0.0,52,0.00,,,0.00,WUHU21623XXSP,2013-01-07 17:47:00,
2013-01-07 12:52:00,48.7,31.4,0.00,North,0,0.0,0.0,51,0.00,,,0.00,WUHU21623XXSP,2013-01-07 17:52:00,
2013-01-07 12:57:00,48.7,31.8,0.00,North,0,0.0,0.0,52,0.00,,,0.00,WUHU21623XXSP,2013-01-07 17:57:00,
2013-01-07 13:02:00,49.1,32.2,0.00,North,0,0.0,0.0,52,0.00,,,0.00,WUHU21623XXSP,2013-01-07 18:02:00,
2013-01-07 13:07:00,49.1,32.2,0.00,North,0,0.0,0.0,52,0.00,,,0.00,WUHU21623XXSP,2013-01-07 18:07:00,
2013-01-07 13:12:00,49.6,32.3,0.00,North,0,0.0,0.0,51,0.00,,,0.00,WUHU21623XXSP,2013-01-07 18:12:00,
2013-01-07 13:17:00,49.8,32.5,0.00,North,0,0.0,0.0,51,0.00,,,0.00,WUHU21623XXSP,2013-01-07 18:17:00,
2013-01-07 13:22:00,50.2,32.8,0.00,North,0,0.0,0.0,51,0.00,,,0.00,WUHU21623XXSP,2013-01-07 18:22:00,
2013-01-07 13:27:00,51.1,33.6,0.00,North,0,0.0,0.0,51,0.00,,,0.00,WUHU21623XXSP,2013-01-07 18:27:00,
2013-01-07 13:32:00,51.6,33.1,0.00,North,0,0.0,0.0,49,0.00,,,0.00,WUHU21623XXSP,2013-01-07 18:32:00,
2013-01-07 13:37:00,51.4,32.9,0.00,North,0,0.0,0.0,49,0.00,,,0.00,WUHU21623XXSP,2013-01-07 18:37:00,
2013-01-07 13:42:00,51.4,32.9,0.00,North,0,0.0,0.0,49,0.00,,,0.00,WUHU21623XXSP,2013-01-07 18:42:00,
2013-01-07 13:47:00,51.4,32.9,0.00,North,0,0.0,0.0,49,0.00,,,0.00,WUHU21623XXSP,2013-01-07 18:47:00,
2013-01-07 13:52:00,51.3,32.8,0.00,North,0,0.0,0.0,49,0.00,,,0.00,WUHU21623XXSP,2013-01-07 18:52:00,
2013-01-07 13:57:00,51.6,33.1,0.00,North,0,0.0,0.0,49,0.00,,,0.00,WUHU21623XXSP,2013-01-07 18:57:00,
2013-01-07 14:02:00,52.0,33.4,0.00,North,0,0.0,0.0,49,0.00,,,0.00,WUHU21623XXSP,2013-01-07 19:02:00,
2013-01-07 14:07:00,52.2,33.0,0.00,North,0,0.0,0.0,48,0.00,,,0.00,WUHU21623XXSP,2013-01-07 19:07:00,
2013-01-07 14:12:00,52.2,33.0,0.00,North,0,0.0,0.0,48,0.00,,,0.00,WUHU21623XXSP,2013-01-07 19:12:00,
2013-01-07 14:17:00,52.2,33.0,0.00,North,0,0.0,0.0,48,0.00,,,0.00,WUHU21623XXSP,2013-01-07 19:17:00,
2013-01-07 14:22:00,52.2,32.5,0.00,North,0,0.0,0.0,47,0.00,,,0.00,WUHU21623XXSP,2013-01-07 19:22:00,
2013-01-07 14:27:00,52.0,32.8,0.00,North,0,0.0,0.0,48,0.00,,,0.00,WUHU21623XXSP,2013-01-07 19:27:00,
2013-01-07 14:32:00,52.2,33.0,0.00,North,0,0.0,0.0,48,0.00,,,0.00,WUHU21623XXSP,2013-01-07 19:32:00,
2013-01-07 14:37:00,52.2,32.5,0.00,North,0,0.0,0.0,47,0.00,,,0.00,WUHU21623XXSP,2013-01-07 19:37:00,
2013-01-07 14:42:00,52.2,33.0,0.00,North,0,0.0,0.0,48,0.00,,,0.00,WUHU21623XXSP,2013-01-07 19:42:00,
2013-01-07 14:47:00,52.3,32.6,0.00,North,0,0.0,0.0,47,0.00,,,0.00,WUHU21623XXSP,2013-01-07 19:47:00,
2013-01-07 14:52:00,52.0,32.3,0.00,North,0,0.0,0.0,47,0.00,,,0.00,WUHU21623XXSP,2013-01-07 19:52:00,
2013-01-07 14:57:00,51.8,32.3,0.00,North,0,0.0,0.0,47,0.00,,,0.00,WUHU21623XXSP,2013-01-07 19:57:00,
2013-01-07 15:02:00,51.6,32.0,0.00,North,0,0.0,0.0,47,0.00,,,0.00,WUHU21623XXSP,2013-01-07 20:02:00,
2013-01-07 15:07:00,51.4,31.8,0.00,North,0,0.0,0.0,47,0.00,,,0.00,WUHU21623XXSP,2013-01-07 20:07:00,
2013-01-07 15:12:00,51.4,31.8,0.00,North,0,0.0,0.0,47,0.00,,,0.00,WUHU21623XXSP,2013-01-07 20:12:00,
2013-01-07 15:17:00,51.4,31.8,0.00,North,0,0.0,0.0,47,0.00,,,0.00,WUHU21623XXSP,2013-01-07 20:17:00,
2013-01-07 15:19:00,51.3,31.8,0.00,North,0,0.0,0.0,47,0.00,,,0.00,WUHU21623XXSP,2013-01-07 20:19:00,
2013-01-07 15:24:00,51.1,31.5,0.00,North,0,0.0,0.0,47,0.00,,,0.00,WUHU21623XXSP,2013-01-07 20:24:00,
2013-01-07 15:29:00,51.1,32.0,0.00,North,0,0.0,0.0,48,0.00,,,0.00,WUHU21623XXSP,2013-01-07 20:29:00,
2013-01-07 15:34:00,51.1,32.0,0.00,North,0,0.0,0.0,48,0.00,,,0.00,WUHU21623XXSP,2013-01-07 20:34:00,
2013-01-07 15:39:00,51.1,31.9,0.00,North,0,0.0,0.0,48,0.00,,,0.00,WUHU21623XXSP,2013-01-07 20:39:00,
2013-01-07 15:44:00,50.7,31.7,0.00,North,0,0.0,0.0,48,0.00,,,0.00,WUHU21623XXSP,2013-01-07 20:44:00,
2013-01-07 15:49:00,50.7,31.7,0.00,North,0,0.0,0.0,48,0.00,,,0.00,WUHU21623XXSP,2013-01-07 20:49:00,
2013-01-07 15:54:00,50.9,31.9,0.00,North,0,0.0,0.0,48,0.00,,,0.00,WUHU21623XXSP,2013-01-07 20:54:00,
2013-01-07 15:59:00,50.7,31.2,0.00,North,0,0.0,0.0,47,0.00,,,0.00,WUHU21623XXSP,2013-01-07 20:59:00,
2013-01-07 16:04:00,50.5,31.2,0.00,North,0,0.0,0.0,47,0.00,,,0.00,WUHU21623XXSP,2013-01-07 21:04:00,
2013-01-07 16:09:00,50.4,30.8,0.00,North,0,0.0,0.0,47,0.00,,,0.00,WUHU21623XXSP,2013-01-07 21:09:00,
2013-01-07 16:14:00,50.2,31.2,0.00,North,0,0.0,0.0,48,0.00,,,0.00,WUHU21623XXSP,2013-01-07 21:14:00,
2013-01-07 16:19:00,49.8,31.4,0.00,North,0,0.0,0.0,49,0.00,,,0.00,WUHU21623XXSP,2013-01-07 21:19:00,
2013-01-07 16:24:00,49.6,31.4,0.00,North,0,0.0,0.0,49,0.00,,,0.00,WUHU21623XXSP,2013-01-07 21:24:00,
2013-01-07 16:29:00,49.1,30.9,0.00,North,0,0.0,0.0,49,0.00,,,0.00,WUHU21623XXSP,2013-01-07 21:29:00,
2013-01-07 16:34:00,48.9,30.5,0.00,North,0,0.0,0.0,49,0.00,,,0.00,WUHU21623XXSP,2013-01-07 21:34:00,
2013-01-07 16:39:00,48.7,30.4,0.00,North,0,0.0,0.0,49,0.00,,,0.00,WUHU21623XXSP,2013-01-07 21:39:00,
2013-01-07 16:44:00,48.4,30.6,0.00,North,0,0.0,0.0,50,0.00,,,0.00,WUHU21623XXSP,2013-01-07 21:44:00,
2013-01-07 16:49:00,48.0,30.2,0.00,North,0,0.0,0.0,50,0.00,,,0.00,WUHU21623XXSP,2013-01-07 21:49:00,
2013-01-07 16:54:00,47.8,30.1,0.00,North,0,0.0,0.0,50,0.00,,,0.00,WUHU21623XXSP,2013-01-07 21:54:00,
2013-01-07 16:59:00,47.5,30.2,0.00,North,0,0.0,0.0,51,0.00,,,0.00,WUHU21623XXSP,2013-01-07 21:59:00,
2013-01-07 17:04:00,47.1,29.9,0.00,North,0,0.0,0.0,51,0.00,,,0.00,WUHU21623XXSP,2013-01-07 22:04:00,
2013-01-07 17:09:00,46.6,29.8,0.00,North,0,0.0,0.0,52,0.00,,,0.00,WUHU21623XXSP,2013-01-07 22:09:00,
2013-01-07 17:14:00,46.4,29.7,0.00,North,0,0.0,0.0,52,0.00,,,0.00,WUHU21623XXSP,2013-01-07 22:14:00,
2013-01-07 17:19:00,46.0,29.8,0.00,North,0,0.0,0.0,53,0.00,,,0.00,WUHU21623XXSP,2013-01-07 22:19:00,
2013-01-07 17:24:00,45.7,29.5,0.00,North,0,0.0,0.0,53,0.00,,,0.00,WUHU21623XXSP,2013-01-07 22:24:00,
2013-01-07 17:29:00,45.3,29.1,0.00,North,0,0.0,0.0,53,0.00,,,0.00,WUHU21623XXSP,2013-01-07 22:29:00,
2013-01-07 17:34:00,45.1,29.4,0.00,North,0,0.0,0.0,54,0.00,,,0.00,WUHU21623XXSP,2013-01-07 22:34:00,
2013-01-07 17:39:00,44.6,28.9,0.00,North,0,0.0,0.0,54,0.00,,,0.00,WUHU21623XXSP,2013-01-07 22:39:00,
2013-01-07 17:44:00,44.4,28.8,0.00,North,0,0.0,0.0,54,0.00,,,0.00,WUHU21623XXSP,2013-01-07 22:44:00,
2013-01-07 17:49:00,44.1,28.4,0.00,North,0,0.0,0.0,54,0.00,,,0.00,WUHU21623XXSP,2013-01-07 22:49:00,
2013-01-07 17:54:00,43.7,28.1,0.00,North,0,0.0,0.0,54,0.00,,,0.00,WUHU21623XXSP,2013-01-07 22:54:00,
2013-01-07 17:59:00,43.3,28.2,0.00,North,0,0.0,0.0,55,0.00,,,0.00,WUHU21623XXSP,2013-01-07 22:59:00,
2013-01-07 18:04:00,43.0,28.0,0.00,North,0,0.0,0.0,55,0.00,,,0.00,WUHU21623XXSP,2013-01-07 23:04:00,
2013-01-07 18:09:00,42.6,27.9,0.00,North,0,0.0,0.0,56,0.00,,,0.00,WUHU21623XXSP,2013-01-07 23:09:00,
2013-01-07 18:14:00,42.4,27.8,0.00,North,0,0.0,0.0,56,0.00,,,0.00,WUHU21623XXSP,2013-01-07 23:14:00,
2013-01-07 18:19:00,42.1,27.9,0.00,North,0,0.0,0.0,57,0.00,,,0.00,WUHU21623XXSP,2013-01-07 23:19:00,
2013-01-07 18:24:00,41.7,27.5,0.00,North,0,0.0,0.0,57,0.00,,,0.00,WUHU21623XXSP,2013-01-07 23:24:00,
2013-01-07 18:29:00,41.5,27.4,0.00,North,0,0.0,0.0,57,0.00,,,0.00,WUHU21623XXSP,2013-01-07 23:29:00,
2013-01-07 18:34:00,41.5,27.4,0.00,North,0,0.0,0.0,57,0.00,,,0.00,WUHU21623XXSP,2013-01-07 23:34:00,
2013-01-07 18:39:00,41.2,27.0,0.00,North,0,0.0,0.0,57,0.00,,,0.00,WUHU21623XXSP,2013-01-07 23:39:00,
2013-01-07 18:44:00,40.8,26.7,0.00,North,0,0.0,0.0,57,0.00,,,0.00,WUHU21623XXSP,2013-01-07 23:44:00,
2013-01-07 18:49:00,40.6,27.0,0.00,North,0,0.0,0.0,58,0.00,,,0.00,WUHU21623XXSP,2013-01-07 23:49:00,
2013-01-07 18:54:00,40.1,26.4,0.00,North,0,0.0,0.0,58,0.00,,,0.00,WUHU21623XXSP,2013-01-07 23:54:00,
2013-01-07 18:59:00,39.9,26.7,0.00,North,0,0.0,0.0,59,0.00,,,0.00,WUHU21623XXSP,2013-01-07 23:59:00,
2013-01-07 19:04:00,39.7,26.5,0.00,North,0,0.0,0.0,59,0.00,,,0.00,WUHU21623XXSP,2013-01-08 00:04:00,
2013-01-07 19:09:00,39.4,26.1,0.00,North,0,0.0,0.0,59,0.00,,,0.00,WUHU21623XXSP,2013-01-08 00:09:00,
2013-01-07 19:14:00,39.4,26.6,0.00,North,0,0.0,0.0,60,0.00,,,0.00,WUHU21623XXSP,2013-01-08 00:14:00,
2013-01-07 19:19:00,39.0,26.3,0.00,North,0,0.0,0.0,60,0.00,,,0.00,WUHU21623XXSP,2013-01-08 00:19:00,
2013-01-07 19:24:00,38.8,26.1,0.00,North,0,0.0,0.0,60,0.00,,,0.00,WUHU21623XXSP,2013-01-08 00:24:00,
2013-01-07 19:29:00,38.5,26.1,0.00,North,0,0.0,0.0,60,0.00,,,0.00,WUHU21623XXSP,2013-01-08 00:29:00,
2013-01-07 19:34:00,38.5,25.8,0.00,North,0,0.0,0.0,60,0.00,,,0.00,WUHU21623XXSP,2013-01-08 00:34:00,
2013-01-07 19:39:00,38.1,25.8,0.00,North,0,0.0,0.0,61,0.00,,,0.00,WUHU21623XXSP,2013-01-08 00:39:00,
2013-01-07 19:44:00,37.9,25.7,0.00,North,0,0.0,0.0,61,0.00,,,0.00,WUHU21623XXSP,2013-01-08 00:44:00,
2013-01-07 19:49:00,37.9,25.7,0.00,North,0,0.0,0.0,61,0.00,,,0.00,WUHU21623XXSP,2013-01-08 00:49:00,
2013-01-07 19:54:00,37.9,25.7,0.00,North,0,0.0,0.0,61,0.00,,,0.00,WUHU21623XXSP,2013-01-08 00:54:00,
2013-01-07 19:59:00,37.8,25.5,0.00,North,0,0.0,0.0,61,0.00,,,0.00,WUHU21623XXSP,2013-01-08 00:59:00,
2013-01-07 20:04:00,37.6,25.3,0.00,North,0,0.0,0.0,62,0.00,,,0.00,WUHU21623XXSP,2013-01-08 01:04:00,
2013-01-07 20:09:00,37.2,25.4,0.00,North,0,0.0,0.0,62,0.00,,,0.00,WUHU21623XXSP,2013-01-08 01:09:00,
2013-01-07 20:14:00,37.2,25.4,0.00,North,0,0.0,0.0,62,0.00,,,0.00,WUHU21623XXSP,2013-01-08 01:14:00,
2013-01-07 20:19:00,36.9,25.1,0.00,North,0,0.0,0.0,62,0.00,,,0.00,WUHU21623XXSP,2013-01-08 01:19:00,
2013-01-07 20:24:00,36.5,24.7,0.00,North,0,0.0,0.0,62,0.00,,,0.00,WUHU21623XXSP,2013-01-08 01:24:00,
2013-01-07 20:29:00,36.3,24.5,0.00,North,0,0.0,0.0,62,0.00,,,0.00,WUHU21623XXSP,2013-01-08 01:29:00,
2013-01-07 20:34:00,36.1,24.4,0.00,North,0,0.0,0.0,62,0.00,,,0.00,WUHU21623XXSP,2013-01-08 01:34:00,
2013-01-07 20:39:00,35.8,24.4,0.00,North,0,0.0,0.0,63,0.00,,,0.00,WUHU21623XXSP,2013-01-08 01:39:00,
2013-01-07 20:44:00,35.8,24.4,0.00,North,0,0.0,0.0,63,0.00,,,0.00,WUHU21623XXSP,2013-01-08 01:44:00,
2013-01-07 20:49:00,35.4,24.1,0.00,North,0,0.0,0.0,63,0.00,,,0.00,WUHU21623XXSP,2013-01-08 01:49:00,
2013-01-07 20:54:00,35.2,23.9,0.00,North,0,0.0,0.0,63,0.00,,,0.00,WUHU21623XXSP,2013-01-08 01:54:00,
2013-01-07 20:59:00,34.9,23.9,0.00,North,0,0.0,0.0,64,0.00,,,0.00,WUHU21623XXSP,2013-01-08 01:59:00,
2013-01-07 21:04:00,34.5,23.5,0.00,North,0,0.0,0.0,64,0.00,,,0.00,WUHU21623XXSP,2013-01-08 02:04:00,
2013-01-07 21:09:00,34.3,23.4,0.00,North,0,0.0,0.0,64,0.00,,,0.00,WUHU21623XXSP,2013-01-08 02:09:00,
2013-01-07 21:14:00,34.3,23.7,0.00,North,0,0.0,0.0,65,0.00,,,0.00,WUHU21623XXSP,2013-01-08 02:14:00,
2013-01-07 21:19:00,34.2,23.5,0.00,North,0,0.0,0.0,65,0.00,,,0.00,WUHU21623XXSP,2013-01-08 02:19:00,
2013-01-07 21:24:00,34.0,23.4,0.00,North,0,0.0,0.0,65,0.00,,,0.00,WUHU21623XXSP,2013-01-08 02:24:00,
2013-01-07 21:29:00,33.8,23.2,0.00,North,0,0.0,0.0,65,0.00,,,0.00,WUHU21623XXSP,2013-01-08 02:29:00,
2013-01-07 21:34:00,33.6,23.0,0.00,North,0,0.0,0.0,65,0.00,,,0.00,WUHU21623XXSP,2013-01-08 02:34:00,
2013-01-07 21:39:00,33.4,23.2,0.00,North,0,0.0,0.0,66,0.00,,,0.00,WUHU21623XXSP,2013-01-08 02:39:00,
2013-01-07 21:44:00,33.3,22.7,0.00,North,0,0.0,0.0,65,0.00,,,0.00,WUHU21623XXSP,2013-01-08 02:44:00,
2013-01-07 21:49:00,33.1,22.5,0.00,North,0,0.0,0.0,65,0.00,,,0.00,WUHU21623XXSP,2013-01-08 02:49:00,
2013-01-07 21:54:00,32.9,22.7,0.00,North,0,0.0,0.0,66,0.00,,,0.00,WUHU21623XXSP,2013-01-08 02:54:00,
2013-01-07 21:59:00,32.7,22.6,0.00,North,0,0.0,0.0,66,0.00,,,0.00,WUHU21623XXSP,2013-01-08 02:59:00,
2013-01-07 22:04:00,32.7,22.6,0.00,North,0,0.0,0.0,66,0.00,,,0.00,WUHU21623XXSP,2013-01-08 03:04:00,
2013-01-07 22:09:00,32.5,22.4,0.00,North,0,0.0,0.0,66,0.00,,,0.00,WUHU21623XXSP,2013-01-08 03:09:00,
2013-01-07 22:14:00,32.4,22.2,0.00,North,0,0.0,0.0,66,0.00,,,0.00,WUHU21623XXSP,2013-01-08 03:14:00,
2013-01-07 22:19:00,32.2,22.4,0.00,North,0,0.0,0.0,67,0.00,,,0.00,WUHU21623XXSP,2013-01-08 03:19:00,
2013-01-07 22:24:00,32.0,22.3,0.00,North,0,0.0,0.0,67,0.00,,,0.00,WUHU21623XXSP,2013-01-08 03:24:00,
2013-01-07 22:29:00,31.8,22.1,0.00,North,0,0.0,0.0,67,0.00,,,0.00,WUHU21623XXSP,2013-01-08 03:29:00,
2013-01-07 22:34:00,31.8,22.1,0.00,North,0,0.0,0.0,67,0.00,,,0.00,WUHU21623XXSP,2013-01-08 03:34:00,
2013-01-07 22:39:00,31.6,21.9,0.00,North,0,0.0,0.0,67,0.00,,,0.00,WUHU21623XXSP,2013-01-08 03:39:00,
2013-01-07 22:44:00,31.3,21.9,0.00,North,0,0.0,0.0,68,0.00,,,0.00,WUHU21623XXSP,2013-01-08 03:44:00,
2013-01-07 22:49:00,31.3,21.9,0.00,North,0,0.0,0.0,68,0.00,,,0.00,WUHU21623XXSP,2013-01-08 03:49:00,
2013-01-07 22:54:00,31.3,21.9,0.00,North,0,0.0,0.0,68,0.00,,,0.00,WUHU21623XXSP,2013-01-08 03:54:00,
2013-01-07 22:59:00,31.1,21.7,0.00,North,0,0.0,0.0,68,0.00,,,0.00,WUHU21623XXSP,2013-01-08 03:59:00,
2013-01-07 23:04:00,31.1,21.7,0.00,North,0,0.0,0.0,68,0.00,,,0.00,WUHU21623XXSP,2013-01-08 04:04:00,
2013-01-07 23:09:00,30.9,21.6,0.00,North,0,0.0,0.0,68,0.00,,,0.00,WUHU21623XXSP,2013-01-08 04:09:00,
2013-01-07 23:14:00,30.9,21.6,0.00,North,0,0.0,0.0,68,0.00,,,0.00,WUHU21623XXSP,2013-01-08 04:14:00,
2013-01-07 23:19:00,30.9,21.6,0.00,North,0,0.0,0.0,68,0.00,,,0.00,WUHU21623XXSP,2013-01-08 04:19:00,
2013-01-07 23:24:00,30.7,21.7,0.00,North,0,0.0,0.0,69,0.00,,,0.00,WUHU21623XXSP,2013-01-08 04:24:00,
2013-01-07 23:29:00,30.7,21.7,0.00,North,0,0.0,0.0,69,0.00,,,0.00,WUHU21623XXSP,2013-01-08 04:29:00,
2013-01-07 23:34:00,30.7,21.7,0.00,North,0,0.0,0.0,69,0.00,,,0.00,WUHU21623XXSP,2013-01-08 04:34:00,
2013-01-07 23:39:00,30.6,21.6,0.00,North,0,0.0,0.0,69,0.00,,,0.00,WUHU21623XXSP,2013-01-08 04:39:00,
2013-01-07 23:44:00,30.6,21.6,0.00,North,0,0.0,0.0,69,0.00,,,0.00,WUHU21623XXSP,2013-01-08 04:44:00,
2013-01-07 23:49:00,30.4,21.6,0.00,North,0,0.0,0.0,69,0.00,,,0.00,WUHU21623XXSP,2013-01-08 04:49:00,
2013-01-07 23:54:00,30.4,21.4,0.00,North,0,0.0,0.0,69,0.00,,,0.00,WUHU21623XXSP,2013-01-08 04:54:00,
2013-01-07 23:59:00,30.4,21.4,0.00,North,0,0.0,0.0,69,0.00,,,0.00,WUHU21623XXSP,2013-01-08 04:59:00,